Other Public Products
Issued by NWS Charleston, SC

Current Version | Previous Version | Graphics & Text | Print | Product List | Glossary On
Versions: 1 2 3 4 5 6 7 8 9 10 11 12 13 14 15 16 17 18 19 20 21 22 23 24 25 26 27 28 29 30 31 32 33 34 35 36 37 38 39 40 41 42 43 44 45 46 47 48 49 50
116
FPUS82 KCHS 271227
OPUCHS

TEST...KCHS/KSAV Gateway Observations...TEST
National Weather Service Charleston SC
800 AM EDT THU JUL 27 2017

NOTE: "fair" indicates few or no clouds below 12,000 feet with no
significant weather and/or obstructions to visibility.

SCZ050-WAZ558-NCZ071-TXZ119-213-PAZ071-DCZ001-FLZ074-172-MI076-
NYZ176-178-MAZ016-IL014-TNZ027-NJZ106-GAZ044-MD014-271300-

...Gateway Observations for Charleston International...

CITY           SKY/WX    TMP DP  RH WIND       PRES   REMARKS
Chas Airport   MOSUNNY   76  75  97 NE3       30.05S
6HR MIN TEMP:  73; 6HR MAX TEMP:  76;

Seattle        CLOUDY    58  54  86 SW8       30.12R
6HR MIN TEMP:  58; 6HR MAX TEMP:  65;

Charlotte      PTSUNNY   76  74  93 SW6       30.10S
6HR MIN TEMP:  75; 6HR MAX TEMP:  77;

Dallas DFW     MOCLDY    81  72  74 S10       29.99F
6HR MIN TEMP:  80; 6HR MAX TEMP:  88;

Dallas Love    PTCLDY    82  71  69 SW6       30.01S
6HR MIN TEMP:  82; 6HR MAX TEMP:  88;

Philladelphia  CLOUDY    70  64  81 S5        30.06R
6HR MIN TEMP:  67; 6HR MAX TEMP:  70;

Wash National  CLOUDY    74  69  85 S10       30.04F
6HR MIN TEMP:  73; 6HR MAX TEMP:  74;

Baltimore      CLOUDY    73  69  87 S7        30.02F
6HR MIN TEMP:  71; 6HR MAX TEMP:  73;

Miami          MOSUNNY   85  77  77 E8        30.02S HX  95
6HR MIN TEMP:  80; 6HR MAX TEMP:  85; 6HR PCP:  0.06;

Detroit        CLOUDY    73  67  81 CALM      29.96S
6HR MIN TEMP:  68; 6HR MAX TEMP:  73;

Newark         CLOUDY    68  60  75 SW8       30.06S
6HR MIN TEMP:  64; 6HR MAX TEMP:  68;

Laguardia      CLOUDY    70  62  76 SW7       30.05S
6HR MIN TEMP:  67; 6HR MAX TEMP:  70;

J F K          CLOUDY    69  63  81 SW8       30.07S
6HR MIN TEMP:  65; 6HR MAX TEMP:  69;

Boston Logan   CLOUDY    65  59  81 SW12      30.03S
6HR MIN TEMP:  63; 6HR MAX TEMP:  65;

Ft. Lauderdale MOSUNNY   85  77  77 SE38      30.00F HX  95
6HR MIN TEMP:  81; 6HR MAX TEMP:  85; 6HR PCP: TRACE;

Chicago O`Hare PTSUNNY   74  69  85 N8        29.93F HAZE
6HR MIN TEMP:  73; 6HR MAX TEMP:  76; 6HR PCP: TRACE;

Chicago Midway MOSUNNY   76  71  85 NE5       29.92F
6HR MIN TEMP:  74; 6HR MAX TEMP:  77; 6HR PCP: TRACE;

Houston Bush   PTCLDY    77  74  90 CALM      30.04R
6HR MIN TEMP:  76; 6HR MAX TEMP:  81;

Houston Hobby  PTCLDY    79  74  84 CALM      30.04R
6HR MIN TEMP:  78; 6HR MAX TEMP:  82;

Nashville      CLOUDY    78  74  87 S3        30.03S
6HR MIN TEMP:  77; 6HR MAX TEMP:  82;

Atlanta        PTSUNNY   74  70  87 CALM      30.10R
6HR MIN TEMP:  72; 6HR MAX TEMP:  74;


$$

GAZ044-118-TXZ119-213-NCZ071-DCZ001-MDZ014-506-PAZ021-071-NJZ106-
NYZ176-178-MAZ106-OHZ011-021-055-MIZ076-KYZ091-ILZ014-INZ047-
MNZ060-ONZ431-271300-

...Gateway Observations for Savannah International...

CITY           SKY/WX    TMP DP  RH WIND       PRES   REMARKS
Savannah Arpt  CLOUDY    77  73  87 SE6       30.04S
                                      6HR PCP:  0.64;

Atlanta        PTSUNNY   74  70  87 CALM      30.10R
6HR MIN TEMP:  72; 6HR MAX TEMP:  74;

Charlotte      PTSUNNY   76  74  93 SW6       30.10S
6HR MIN TEMP:  75; 6HR MAX TEMP:  77;

Dallas DFW     MOCLDY    81  72  74 S10       29.99F
6HR MIN TEMP:  80; 6HR MAX TEMP:  88;

Houston Bush   PTCLDY    77  74  90 CALM      30.04R
6HR MIN TEMP:  76; 6HR MAX TEMP:  81;

Wash National  CLOUDY    74  69  85 S10       30.04F
6HR MIN TEMP:  73; 6HR MAX TEMP:  74;

Wash Dulles    CLOUDY    71  66  84 S5        30.03F
6HR MIN TEMP:  69; 6HR MAX TEMP:  71;

Baltimore      CLOUDY    73  69  87 S7        30.02F
6HR MIN TEMP:  71; 6HR MAX TEMP:  73;

Philadelphia   CLOUDY    70  64  81 S5        30.06R
6HR MIN TEMP:  67; 6HR MAX TEMP:  70;

Newark         CLOUDY    68  60  75 SW8       30.06S
6HR MIN TEMP:  64; 6HR MAX TEMP:  68;

Laguardia      CLOUDY    70  62  76 SW7       30.05S
6HR MIN TEMP:  67; 6HR MAX TEMP:  70;

J F K          CLOUDY    69  63  81 SW8       30.07S
6HR MIN TEMP:  65; 6HR MAX TEMP:  69;

Boston         CLOUDY    65  59  81 SW12      30.03S
6HR MIN TEMP:  63; 6HR MAX TEMP:  65;

Pittsburg      CLOUDY    65  63  93 CALM      30.01R
6HR MIN TEMP:  63; 6HR MAX TEMP:  67;

Akron          PTSUNNY   70  63  78 S6        30.00S
6HR MIN TEMP:  65; 6HR MAX TEMP:  70;

Cleveland      CLOUDY    70  64  81 S5        30.00R
6HR MIN TEMP:  66; 6HR MAX TEMP:  70;

Cincinnati     CLOUDY    73  73 100 S6        29.98S
6HR MIN TEMP:  72; 6HR MAX TEMP:  75; 6HR PCP:  0.81;

Columbus       CLOUDY    68  66  93 CALM      29.97F
Detroit        CLOUDY    73  67  81 CALM      29.96S
6HR MIN TEMP:  68; 6HR MAX TEMP:  73;

Chicago O`Hare PTSUNNY   74  69  85 N8        29.93F HAZE
6HR MIN TEMP:  73; 6HR MAX TEMP:  76; 6HR PCP: TRACE;

Minneapolis    SUNNY     68  60  75 N6        30.06R
6HR MIN TEMP:  66; 6HR MAX TEMP:  70;

Indianapolis   CLOUDY    75  73  93 S8        29.96R
6HR MIN TEMP:  74; 6HR MAX TEMP:  77; 6HR PCP: TRACE;

Toronto Canada LGT RAIN  68  64  88 NW10      29.95S

$$




USA.gov is the U.S. government's official web portal to all federal, state and local government web resources and services.